TimeEST,TemperatureF,Dew PointF,Humidity,Sea Level PressureIn,VisibilityMPH,Wind Direction,Wind SpeedMPH,Gust SpeedMPH,PrecipitationIn,Events,Conditions,WindDirDegrees,DateUTC
12:51 AM,12.0,-2.0,53,30.19,10.0,Calm,Calm,-,N/A,,Overcast,0,2014-01-29 05:51:00
1:51 AM,12.0,-5.1,46,30.16,10.0,Calm,Calm,-,N/A,,Overcast,0,2014-01-29 06:51:00
2:51 AM,12.0,-2.0,53,30.16,10.0,Calm,Calm,-,N/A,,Overcast,0,2014-01-29 07:51:00
3:51 AM,12.0,-2.0,53,30.14,10.0,Calm,Calm,-,N/A,,Overcast,0,2014-01-29 08:51:00
4:51 AM,12.0,-2.9,51,30.12,10.0,Calm,Calm,-,N/A,,Overcast,0,2014-01-29 09:51:00
5:51 AM,12.0,-4.0,49,30.10,10.0,Calm,Calm,-,N/A,,Overcast,0,2014-01-29 10:51:00
6:51 AM,10.9,-0.9,59,30.08,10.0,Calm,Calm,-,N/A,,Clear,0,2014-01-29 11:51:00
7:51 AM,12.0,-2.0,53,30.09,10.0,Variable,3.5,-,N/A,,Mostly Cloudy,0,2014-01-29 12:51:00
8:51 AM,12.9,-4.0,47,30.08,10.0,WNW,3.5,-,N/A,,Overcast,300,2014-01-29 13:51:00
9:51 AM,16.0,-6.0,38,30.06,10.0,Variable,6.9,-,N/A,,Mostly Cloudy,0,2014-01-29 14:51:00
10:51 AM,18.0,-9.0,30,30.04,10.0,Variable,5.8,-,N/A,,Clear,0,2014-01-29 15:51:00
11:51 AM,19.9,-9.9,26,29.99,10.0,Variable,5.8,-,N/A,,Clear,0,2014-01-29 16:51:00
12:51 PM,21.0,-9.0,26,29.94,10.0,West,8.1,-,N/A,,Clear,260,2014-01-29 17:51:00
1:51 PM,21.9,-9.0,25,29.93,10.0,North,-9999.0,-,N/A,,Clear,0,2014-01-29 18:51:00
2:51 PM,23.0,-9.9,23,29.91,10.0,WSW,8.1,-,N/A,,Clear,240,2014-01-29 19:51:00
3:51 PM,21.9,-9.9,24,29.92,10.0,Variable,3.5,-,N/A,,Clear,0,2014-01-29 20:51:00
4:51 PM,21.0,-9.0,26,29.94,10.0,Variable,3.5,-,N/A,,Clear,0,2014-01-29 21:51:00
5:51 PM,19.9,-9.9,26,29.98,10.0,Variable,6.9,-,N/A,,Clear,0,2014-01-29 22:51:00
6:51 PM,19.0,-11.0,26,30.02,10.0,West,8.1,-,N/A,,Clear,280,2014-01-29 23:51:00
7:51 PM,17.1,-9.9,30,30.07,10.0,Variable,3.5,-,N/A,,Clear,0,2014-01-30 00:51:00
8:51 PM,16.0,-9.0,32,30.09,10.0,West,6.9,-,N/A,,Clear,260,2014-01-30 01:51:00
9:51 PM,15.1,-8.0,36,30.13,10.0,Variable,5.8,-,N/A,,Clear,0,2014-01-30 02:51:00
10:51 PM,14.0,-6.0,41,30.15,10.0,Variable,4.6,-,N/A,,Clear,0,2014-01-30 03:51:00
11:51 PM,12.9,-6.0,43,30.16,10.0,Variable,5.8,-,N/A,,Clear,0,2014-01-30 04:51:00